www.pogodaiklimat.ru

Погода и климат >> Архив погоды >> Россия >> Чукотка >> Уэлен


АРХИВ ПОГОДЫ в Уэлене

Время (UTC), дата Ветер
(напр.,м/с)
 
Видим.   Явления Облачность Т
(С)
Тd
(С)
f
(%)
Тe
(С)
Тes
(С)
Комфортность P
(гПа)
Po
(гПа)
Тmin
(С)
Tmax
(С)
R
(мм)
R24
(мм)
S
(см)
15 12.08 Ю 4
{10}
20 км {ливн. осадки} 10/10 300 м
[Cu Sc]
+14.0 +10.4 79 +13 +13 1008.9 1008.0
18 12.08 Ю 2
{9}
15 км {ливн. осадки} 10/10 300 м
[Cu Sc]
+12.4 +10.9 91 +11 +11 1007.8 1006.9 +11.3 0.8
21 12.08 Ю 2
{6}
20 км 10/10 100 м
[St]
+10.8 +10.4 97 +9 +9 1006.5 1005.6
00 13.08 Ю 2
{5}
20 км слаб. ливневой дождь 10/10 100 м
[Cb cap]
+9.3 +8.6 95 +7 +7 1005.5 1004.6
03 13.08 ЮЗ 9
{13}
20 км {ливн. осадки} 10/8 200 м
[St Ac trans Ci fib]
+11.4 +10.4 94 +8 +8 1005.2 1004.3
06 13.08 Ю 10
{12}
20 км {ливн. осадки} 10/9 300 м
[Sc Ci fib]
+11.5 +10.2 92 +8 +8 1005.2 1004.3 +12.5 0.3
09 13.08 ЮЗ 6
{12}
20 км 10/9 600 м
[Cu Sc Ci fib]
+10.9 +9.3 90 +8 +8 1005.9 1005.0
12 13.08 Ю 8-10
{10}
20 км 9/9 600 м
[Cu Sc]
+9.2 +8.0 92 +5 +5 1005.9 1005.0
15 13.08 Ю 9-10
{13}
16 км слаб. ливневой дождь 10/10 300 м
[Cb cap]
+9.8 +8.5 92 +5 +5 1005.4 1004.5
18 13.08 Ю 7
{11}
20 км слаб. ливневой дождь 10/10 300 м
[Cb cap]
+9.7 +8.6 93 +6 +6 1005.4 1004.5 +9.0 0.5
21 13.08 Ю 8
{10}
20 км {ливн. осадки} 9/9 600 м
[Cu Sc]
+11.2 +8.8 85 +8 +8 1006.3 1005.4
00 14.08 ЮЗ 9-10
{13}
20 км {ливн. осадки} 9/9 600 м
[Cu Sc]
+13.2 +9.0 76 +10 +10 1007.7 1006.8
03 14.08 Ю 10-11
{14}
20 км в посл. час ливневой дождь 9/9 600 м
[Cu Sc]
+9.6 +7.7 88 +5 +5 1008.3 1007.4
06 14.08 Ю 9-10
{14}
19 км слаб. ливневой дождь 9/9 300 м
[Cb cap]
+10.2 +8.5 89 +6 +6 1009.7 1008.8 +13.3 0.3
09 14.08 штиль 0
{11}
23 км {ливн. осадки} 10/10 300 м
[Cu Sc]
+8.8 +7.3 90 +8 +8 1011.6 1010.7
12 14.08 штиль 0
{2}
27 км {ливн. осадки} 9/9 600 м
[Sc]
+8.0 +6.2 88 +7 +7 1012.6 1011.7
15 14.08 Ю 8
{9}
20 км 9/9 600 м
[Cu Sc]
+8.4 +5.9 84 +4 +4 1013.0 1012.1
18 14.08 Ю 10-11
{13}
20 км 6/6 300 м
[Cu Sc]
+8.9 +7.7 92 +4 +4 1013.7 1012.8 +7.6 0.0
21 14.08 Ю 9-10
{14}
16 км 10/6 300 м
[Cu Sc Ci fib]
+9.0 +7.7 92 +4 +4 1015.5 1014.6
00 15.08 Ю 11-13
{14}
20 км 10/8 300 м
[St Ci fib]
+10.0 +8.4 90 +5 +5 1015.8 1014.9
03 15.08 Ю 11-13
{14}
12 км 10/8 300 м
[St Ci fib]
+9.6 +8.4 92 +5 +5 1016.1 1015.2
06 15.08 ЮЗ 12-13
{14}
12 км 10/8 200 м
[St Ci fib]
+8.7 +8.0 95 +3 +3 1016.7 1015.8 +10.4
09 15.08 ЮЗ 12-13
{14}
6000 м дымка 10/8 200 м
[St Ci fib]
+8.3 +7.7 96 +3 +3 1018.3 1017.4
12 15.08 ЮЗ 3
{13}
700 м туман ?/? +7.0 +7.0 100 +4 +4 1019.7 1018.8
15 15.08 ЮВ 2
{4}
700 м туман ?/? +7.0 +7.0 100 +5 +5 1020.5 1019.6
18 15.08 СВ 3
{4}
900 м туман ?/? +6.6 +6.6 100 +3 +3 1021.1 1020.2 +6.6
21 15.08 СВ 2
{4}
20 км {туман} 10/10 200 м
[St]
+6.8 +5.7 93 +4 +4 1021.8 1020.9
00 16.08 СВ 2
{5}
11 км слаб. ливневой дождь {туман} 10/10 100 м
[Cb cap]
+6.7 +6.0 95 +4 +4 1022.4 1021.5
03 16.08 СВ 3
{5}
13 км в посл. час ливневой дождь 10/10 100 м
[St]
+7.2 +6.4 95 +4 +4 1023.1 1022.2
06 16.08 СЗ 6
{8}
20 км {ливн. осадки} 8/4 200 м
[Cu hum Ac trans Ci fib]
+7.3 +5.8 90 +3 +3 1024.8 1023.9 +7.4 2
09 16.08 штиль 0
{9}
24 км 10/8 600 м
[Sc Ci fib]
+6.3 +4.2 86 +5 +5 1025.5 1024.6
12 16.08 Ю 7
{10}
27 км 9/6 600 м
[Sc Ci fib]
+6.4 +5.3 93 +1 +1 1026.4 1025.5
15 16.08 СЗ 10-11
{12}
20 км 10/6 600 м
[Sc Ci fib]
+8.2 +5.3 82 +3 +3 1027.9 1027.0
18 16.08 СЗ 4
{13}
20 км 9/9 600 м
[Sc]
+7.4 +5.0 85 +4 +4 1029.8 1028.9 +5.3
21 16.08 СЗ 9-12
{14}
15 км 9/9 100 м
[St]
+8.2 +7.6 96 +3 +3 1031.8 1030.9
00 17.08 С 6
{12}
900 м туман 9/9 1500 м
[Sc]
+7.4 +7.4 100 +3 +3 1034.5 1033.6
03 17.08 С 10-11
{12}
18 км в посл. час туман 10/10 200 м
[St]
+7.8 +6.7 93 +2 +2 1036.2 1035.3
06 17.08 С 6
{11}
19 км {туман} 10/3 200 м
[St Ci fib]
+7.2 +5.5 89 +3 +3 1038.3 1037.4 +8.3
09 17.08 СВ 4
{7}
19 км 10/1 200 м
[St Ci fib]
+7.0 +5.1 88 +3 +3 1039.5 1038.6
12 17.08 С 6
{7}
19 км 10/1 300 м
[St Cs]
+6.8 +5.2 90 +2 +2 1040.1 1039.2
15 17.08 С 8
{9}
20 км 10/1 200 м
[St Cs]
+6.9 +5.6 91 +2 +2 1040.1 1039.2
18 17.08 С 7
{9}
20 км 10/1 200 м
[St Ac trans Cs]
+7.0 +5.6 91 +2 +2 1040.5 1039.6 +6.6
21 17.08 С 5
{8}
20 км 10/4 200 м
[Sc Ac trans Ci fib]
+7.4 +6.2 92 +3 +4 1040.6 1039.7
00 18.08 С 3
{7}
20 км 10/5 200 м
[Sc Ac trans Ci fib]
+8.2 +6.4 88 +5 +7 1039.8 1038.9
03 18.08 С 2
{4}
20 км 10/3 300 м
[Sc As trans]
+7.9 +6.5 91 +6 +7 1039.1 1038.2
06 18.08 С 3
{4}
20 км 10/0
[As trans]
+7.8 +6.5 91 +5 +5 1038.4 1037.5 +8.5
09 18.08 С 2
{3}
28 км 10/3 600 м
[Sc As trans]
+7.9 +6.5 91 +6 +6 1037.7 1036.8
12 18.08 С 1
{4}
30 км 10/5 600 м
[Sc Ac trans Ci fib]
+7.8 +6.2 90 +7 +7 1036.3 1035.4
15 18.08 штиль 0
{4}
20 км 10/4 600 м
[Sc Ac trans Ci fib]
+7.9 +6.5 91 +7 +7 1034.7 1033.8
18 18.08 штиль 0
{3}
19 км слаб. ливневой дождь 10/8 300 м
[Cb cap As op]
+8.3 +7.0 92 +7 +7 1034.4 1033.5 +7.5 0.3
21 18.08 штиль 0
{3}
19 км слаб. дождь 10/3 300 м
[Frnb As op]
+8.9 +7.8 93 +8 +9 1033.1 1032.2
00 19.08 СВ 1
{2}
20 км слаб. дождь 10/4 300 м
[Frnb As op]
+8.3 +6.4 88 +7 +8 1031.5 1030.6
03 19.08 штиль 0
{4}
18 км слаб. дождь 10/5 300 м
[Frnb As op]
+7.3 +6.7 96 +6 +7 1029.0 1028.1
06 19.08 Ю 2
{4}
18 км слаб. дождь 10/5 200 м
[Frnb As op]
+7.1 +6.4 95 +5 +5 1026.1 1025.2 +8.9 11
09 19.08 В 1
{5}
18 км слаб. дождь 10/6 200 м
[Frnb As op]
+7.0 +6.1 94 +6 +6 1024.3 1023.4

 

Местоположение метеостанции Уэлен (Чукотка, Россия): широта 66.16 долгота -169.00 высота над уровнем моря 7 м.

В архиве по умолчанию представлена погода в Уэлене за последнюю неделю. Архивные данные за месяц целиком и за предыдущие месяцы, начиная с января 2011 года, Вы можете получить, выбрав интересующий диапазон дат из раскрывающегося списка и нажав кнопку "Ввод!".


*Определитесь, кто Вы:
робот инопланетянин человек

Внимание! Время в таблицах - всемирное. Для получения местного времени необходимо прибавить поправку, которая равна 12 ч.

Смотрите также архив погоды в соседних городах и на ближайших метеорологических станциях:

Погода на Мысе Ванкарем (Чукотка, Россия) (320 км)
Погода в Эгвекиноте (Чукотка, Россия) (448 км)
Погода на Мысе Шмидта (Чукотка, Россия) (520 км)
Погода на Острове Врангеля (Чукотка, Россия) (648 км)

Пояснения к столбцам:

Ветер - указаны скорость ветра в м/с - средняя за 10 мин, порывы в срок и между сроками (в фигурных скобках) и направление, откуда дует ветер: С - северный, СВ - северо-восточный, В - восточный, ЮВ - юго-восточный, Ю - южный, ЮЗ - юго-западный, З - западный, СЗ - северо-западный.
Видимость - горизонтальная дальность видимости в метрах или километрах. При видимости от 1 до 10 км при отсутствии осадков обычно наблюдается дымка, при ухудшении видимости до 1 км и менее - туман. В сухую погоду видимость может ухудшаться дымом, пылью или мглою.
Явления - указаны атмосферные явления, наблюдавшиеся в срок или в последний час перед сроком; фигурными скобками обозначены явления, наблюдавшиеся между сроками (за 1-3 часа до срока); квадратными скобками обозначены град или гололедные отложения с указанием их диаметра в мм.
Облачность - указаны через наклонную черту общая и нижняя облачность в баллах и высота нижней границы облаков в метрах; квадратными скобками обозначены формы облаков: Ci - перистые, Cs - перисто-слоистые, Cc - перисто-кучевые, Ac - высококучевые, As - высокослоистые, Sc - слоисто-кучевые, Ns - слоисто-дождевые, Cu - кучевые, Cb - кучево-дождевые. Подробнее классификацию облаков см. в Атласе облаков (PDF).
T - Температура воздуха - температура, измеренная на высоте 2 м над землей.
Td - Температура точки росы - температура, при понижении до которой содержащийся в воздухе водяной пар достигнет насыщения.
f - Относительная влажность воздуха - влажноcть воздуха, измеренная на высоте 2 м над землей.
Te - Эффективная температура - температура, которую ощущает одетый по сезону человек в тени. Характеристика душности погоды. При расчете учитывается влияние влажности воздуха и скорости ветра на теплоощущения человека.
Tes - Эффективная температура на солнце - температура, которую ощущает человек, с поправкой на солнечный нагрев. Характеристика знойности погоды. Зависит от высоты солнца над горизонтом, облачности и скорости ветра. Ночью, в пасмурную погоду, а также при ветре 12 м/с и более поправка равна нулю.
P - Атмосферное давление - приведенное к уровню моря атмосферное давление.
Po - Атмосферное давление - измеренное на уровне метеостанции атмосферное давление.
Tmin - Минимальная температура - минимум температуры воздуха на высоте 2 м над землей.
Tmax - Максимальная температура - максимум температуры воздуха на высоте 2 м над землей.
R - Количество осадков - Количество выпавших осадков за период времени, мм. При наведении курсора мыши на число - период времени, за который выпало указанное количество осадков.
R24 - Количество осадков - Количество выпавших осадков за 24 часа, мм.
S - Снежный покров - Высота снежного покрова, см. При наведении курсора мыши на число - состояние снежного покрова и степень покрытия местности в баллах.